Etusivu
METAR-TAF:

METAR-TAF

Lentoasemat :

Lac Qui Parle County Airport

Madison, Minnesota, Yhdysvallat

Leveyspiiri: 44-59-10N, Pituuspiiri: 096-10-40W, korkeus merenpinnasta: 330 m

Tämänhetkinen sää

Tämä raportti tehtiin 15 minuuttia sitten, kello 18.16 UTC
Tuuli 18 kn etelästä puuskistuen 23 kn:hen
Lämpötila -5°C
Kosteus 53%
Ilmanpaine 1023 hPa
Näkyvyys: 16.1 km
selkeää

METAR: KDXX 121816Z AUTO 18018G23KT 10SM CLR M05/M13 A3020 RMK AO2

Aika: 12:31 (18:31 UTC)


TAF: puuttuu

Säähavainnot ja -ennusteet yli 4000 lentoasemalta (METAR- ja TAF-raportit).

Käytössä olevat sääasemat on merkitty karttaan keltaisilla ja punaisilla pisteillä.

Aseta hiiri pisteen päälle nähdäksesi sääaseman nimen.

Klikkaa sitten nähdäksesi säähavainnot ja -ennusteet.

Kartan vaihtaminen: klikkaa mustalla rastilla varustettuja vihreitä pisteitä, niin voit zoomata sisään; viivalla varustettua vihreää pistettä, niin voit zoomata ulos tai vihreitä nuolia, niin pääset viereisille kartoille.


METAR-TAF: